TITAN 3C TRANSTAGE DEB, 43448

Orbit data source: Space-Track

TITAN 3C TRANSTAGE DEB, 43448 is space debris in GEO originally from a launch on Sun, 09 Feb 1969 UTC launched from the Air Force Eastern Test Range (AFETR). Debris objects in space refer to the collection of defunct objects orbiting the Earth. Examples of debris include non-operational satellites, rocket bodies, and fragments generated from explosions, collisions, or faulty payload assembly.

Not visible in the next 10 days
Identifier
43448, 1969-013H
Orbit
GEO
Country
Flag of USUS
Related business
Manufacturer
Martin Marietta
Mission
Spacecraft
Bus & Motor
Unknown
Mass
Unknown
Launch date (UTC)
1969-02-09 (58 years ago)
Launch vehicle
Unknown
Launch site
Air Force Eastern Test Range (AFETR)
Object type
Payload
Rocket body
Debris
Shape & HBR
Unknown shape, 1.1 m
Radar Cross Section
Medium (>0.1 m² and <1 m²)

Expand to show TLE details & history
Last TLE update: 1 month ago

TLE from 1 month ago
0 TITAN 3C TRANSTAGE DEB
1 43448U 69013H   26226.83556259 -.00000075  00000-0  00000-0 0  9996
2 43448   1.3076 102.1627 0286209  44.2875 318.1699  0.98712046 30128
Epoch: 2026-08-14T20:03Z
TLE epoch observation values (Epoch: 2026-08-14T20:03:12.607Z)
Latitude
0.00001°
Longitude
-161.67743°
Altitude
35,331.05 km
Speed
3.124 km/s
True Right ascension
06h 49m 31s
True Declination
0° 00' 00"
Sunlit
Object was in daylight at epoch
Visualization orbit readout
Latitude
Unknown
Longitude
Unknown
Altitude
Unknown
Speed
Unknown
Apparent Right ascension
Unknown
Apparent Declination
Unknown
Sunlit
N/A
Visualization observer readout
Local Sidereal Time
11:15:37
Azimuth
Unknown
Elevation
Unknown
Doppler factor
Unknown
Orbital elements
Apogee altitude
37,450.156 km
Perigee altitude
35,011.152 km
Semi-major axis
42,608.791 km
Eccentricity
0.02862
Inclination
1.3076°
RAAN
102.1627°
Arg. of periapsis
44.2875°
True anomaly
315.92332°
Mean anomaly
318.1699°
Eccentric anomaly
317.05262°
Mean motion
0.24677 °/min
Orbital period
1,458.84 mins
BSTAR
0
Loading maneuver chart data...
Computing Atmospheric mass density...

Documentation

Showing up to 5 results
|